World > North America > United States > South Dakota > Fort Meade

Fort Meade, SD Hourly Weather Conditions

Feedback E-mail the Weather

Quick WX

Fort Meade, SD Weather Maps

°F °C°F °C
Fort Meade Weather Map
UTC Time: 2/9/2023, 06:34
Your Time:

Fort Meade, SD Regional Weather

Expires:202302090700;;047047
ASUS43 KFSD 090610
RWRSD 

WEATHER ROUNDUP FOR SOUTH DAKOTA
NATIONAL WEATHER SERVICE SIOUX FALLS SD
1200 AM CST THU FEB 09 2023

NOTE: "FAIR" INDICATES FEW OR NO CLOUDS BELOW 12,000 FEET WITH NO
SIGNIFICANT WEATHER AND/OR OBSTRUCTIONS TO VISIBILITY.



SDZ012>016-024>037-041>051-057-063-072>074-090700-
SOUTHWEST AND SOUTH CENTRAL SOUTH DAKOTA
  
CITY           SKY/WX    TMP DP  RH WIND       PRES   REMARKS
RAPID CTY ARPT MOCLDY    34  22  61 N26G35    30.04R WCI  21 TC   1   
PIERRE         CLOUDY    34  28  79 NW12      29.97R WCI  25 TC   1   
CUSTER         CLOUDY    26  15  63 MISG      29.99R TC  -3           
ELLSWORTH AFB  PTCLDY    34  21  58 NW20      30.02R WCI  23 TC   1   
PHILIP         MOCLDY    38  27  64 NW12      30.03R TC   3           
PINE RIDGE     CLOUDY    34  28  79 NW7       30.06R WCI  28 TC   1   
SPEARFISH      CLOUDY    30  23  74 NW21G29   30.09R WCI  17 TC  -1   
WINNER         MOCLDY    33  29  85 NW8       29.97R WCI  26 TC   1   
$$
 

SKY/WX - Weather  TMP - Temperature  DP - Dew Point  RH - Humidity
WIND - Wind Direction/Speed PRES - Barometric Pressure VSB - Visibility
WCI - Wind Chill Index E13G22 Wind - East Wind 13 mph/Gusts of 22 mph

Trending Headlines

Trending Entertainment Headlines

Fort Meade Radar Loop

Use the map search tool if you want to place a location marker on the radar map...

Fort Meade Quick Facts

National Two Day Weather Forecast


E-mail the Fort Meade Weather Forecast

Voice your opinion or tell us about page issues...